STARLINK-32526 (62162 NORAD) Tracking and Keplerian Element Data

This shows tracking and keplerian element data for the satellite.

Feedback or suggestion? Click here.




ElementValue
Catalog62162
NameSTARLINK-32526
Epoch Orbit1142
Epoch Day35.03696743
Epoch Year2025
RAAN257.0599
Inclination43.001
Eccentricity0.0001499
Argument of Perigee263.4081
Mean Anonmoly96.6602
Mean Motion15.32096229
Decay Rate4.62E-06
L11 62162U 24224Z 25035.03696743 .00000462 00000+0 23299-4 0 9994
L22 62162 43.0010 257.0599 0001499 263.4081 96.6602 15.32096229 11427



Live tracking and technical data element details for STARLINK-32526 (NORAD 62162). STARLINK-32526 can be tracked NOW for your location showing map with azimuth and elevation plus other details from your city location.







IsCatalogInMostPopularTable: catalog: 62162, numindb: 19
Update: records affected: 1



GetName: 62162 STARLINK-32526

Hit Count: updated at: Sun, 18 May 2025 22:17:33 GMT